GLO7542 SBBR-SBPV

Flight info

Callsign GLO7542
Flight time 2h 31m
Altitude 38000
Route UGUGA UZ40 PVH
Aircraft B738/M-SDE2E3FGHIRWXY/LB1

Departure

Time 2026-04-20 18:15
Airport Presidente Juscelino Kubitschek International Airport (SBBR)

Arrival

Time 2026-04-20 20:46
Airport Governador Jorge Teixeira de Oliveira International Airport (SBPV)
Time Latitude Longitude Altitude Speed Heading
2026-04-20 18:00 -15.87190 -47.91736 3469 ft 0 kts 265°
2026-04-20 18:03 -15.87188 -47.91714 3468 ft 4 kts 266°
2026-04-20 18:03 -15.87186 -47.91689 3467 ft 2 kts 252°
2026-04-20 18:03 -15.87179 -47.91679 3469 ft 2 kts 191°
2026-04-20 18:03 -15.87168 -47.91679 3467 ft 2 kts 176°
2026-04-20 18:04 -15.87164 -47.91679 3467 ft 0 kts 175°
2026-04-20 18:06 -15.87195 -47.91677 3468 ft 10 kts 175°
2026-04-20 18:06 -15.87264 -47.91671 3469 ft 10 kts 176°
2026-04-20 18:06 -15.87333 -47.91667 3468 ft 10 kts 176°
2026-04-20 18:07 -15.87400 -47.91661 3469 ft 10 kts 173°
2026-04-20 18:07 -15.87465 -47.91657 3469 ft 9 kts 178°
2026-04-20 18:07 -15.87529 -47.91655 3468 ft 9 kts 177°
2026-04-20 18:07 -15.87591 -47.91651 3469 ft 9 kts 176°
2026-04-20 18:08 -15.87651 -47.91647 3469 ft 9 kts 175°
2026-04-20 18:08 -15.87710 -47.91646 3469 ft 8 kts 194°
2026-04-20 18:08 -15.87739 -47.91693 3469 ft 8 kts 263°
2026-04-20 18:08 -15.87743 -47.91757 3469 ft 11 kts 265°
2026-04-20 18:09 -15.87751 -47.91868 3470 ft 19 kts 266°
2026-04-20 18:09 -15.87760 -47.92022 3470 ft 22 kts 266°
2026-04-20 18:09 -15.87771 -47.92179 3470 ft 21 kts 266°
2026-04-20 18:09 -15.87780 -47.92332 3470 ft 21 kts 266°
2026-04-20 18:10 -15.87790 -47.92480 3470 ft 20 kts 266°
2026-04-20 18:10 -15.87799 -47.92623 3470 ft 20 kts 266°
2026-04-20 18:10 -15.87809 -47.92762 3471 ft 19 kts 266°
2026-04-20 18:10 -15.87817 -47.92897 3471 ft 18 kts 266°
2026-04-20 18:11 -15.87826 -47.93027 3470 ft 18 kts 266°
2026-04-20 18:11 -15.87833 -47.93153 3471 ft 17 kts 266°
2026-04-20 18:11 -15.87842 -47.93274 3471 ft 16 kts 266°
2026-04-20 18:11 -15.87849 -47.93389 3470 ft 16 kts 266°
2026-04-20 18:12 -15.87856 -47.93501 3471 ft 15 kts 266°
2026-04-20 18:12 -15.87862 -47.93609 3470 ft 15 kts 266°
2026-04-20 18:12 -15.87869 -47.93712 3472 ft 14 kts 266°
2026-04-20 18:12 -15.87875 -47.93810 3472 ft 13 kts 266°
2026-04-20 18:13 -15.87882 -47.93905 3472 ft 13 kts 266°
2026-04-20 18:13 -15.87912 -47.93987 3473 ft 13 kts 217°
2026-04-20 18:13 -15.87997 -47.93992 3478 ft 12 kts 176°
2026-04-20 18:13 -15.88064 -47.93974 3483 ft 8 kts 116°
2026-04-20 18:14 -15.88058 -47.93890 3483 ft 28 kts 85°
2026-04-20 18:14 -15.88030 -47.93439 3478 ft 97 kts 86°
2026-04-20 18:14 -15.87971 -47.92528 3476 ft 154 kts 86°
2026-04-20 18:14 -15.87890 -47.91265 3657 ft 187 kts 86°
2026-04-20 18:15 -15.87788 -47.89957 4690 ft 172 kts 86°
2026-04-20 18:15 -15.87711 -47.88729 5547 ft 169 kts 87°
2026-04-20 18:15 -15.87637 -47.87433 5906 ft 194 kts 86°
2026-04-20 18:15 -15.87554 -47.85971 6119 ft 217 kts 87°
2026-04-20 18:16 -15.87455 -47.84325 6295 ft 239 kts 87°
2026-04-20 18:16 -15.87346 -47.82519 6457 ft 262 kts 87°
2026-04-20 18:16 -15.87227 -47.80553 6729 ft 277 kts 87°
2026-04-20 18:16 -15.87052 -47.78564 7522 ft 279 kts 78°
2026-04-20 18:17 -15.86188 -47.76754 8216 ft 286 kts 51°
2026-04-20 18:17 -15.84634 -47.75441 8936 ft 291 kts 28°
2026-04-20 18:17 -15.82693 -47.74792 9593 ft 298 kts
2026-04-20 18:17 -15.80659 -47.75088 10235 ft 305 kts 341°
2026-04-20 18:18 -15.78629 -47.75948 10469 ft 327 kts 336°
2026-04-20 18:18 -15.76493 -47.76957 10689 ft 346 kts 335°
2026-04-20 18:18 -15.74424 -47.78311 11100 ft 356 kts 318°
2026-04-20 18:18 -15.72642 -47.80113 11753 ft 358 kts 314°
2026-04-20 18:19 -15.70908 -47.81974 12590 ft 358 kts 313°
2026-04-20 18:19 -15.69167 -47.83857 13244 ft 362 kts 313°
2026-04-20 18:19 -15.67400 -47.85758 13822 ft 368 kts 314°
2026-04-20 18:19 -15.65613 -47.87662 14377 ft 372 kts 314°
2026-04-20 18:20 -15.63782 -47.89596 14945 ft 375 kts 314°
2026-04-20 18:20 -15.61936 -47.91534 15509 ft 380 kts 314°
2026-04-20 18:20 -15.60066 -47.93489 16026 ft 385 kts 314°
2026-04-20 18:20 -15.58171 -47.95465 16396 ft 394 kts 314°
2026-04-20 18:21 -15.56235 -47.97480 17036 ft 394 kts 314°
2026-04-20 18:21 -15.54298 -47.99495 17612 ft 397 kts 314°
2026-04-20 18:21 -15.52326 -48.01545 18061 ft 404 kts 315°
2026-04-20 18:21 -15.50338 -48.03610 18566 ft 406 kts 314°
2026-04-20 18:22 -15.48340 -48.05685 19066 ft 408 kts 314°
2026-04-20 18:22 -15.46330 -48.07772 19561 ft 410 kts 314°
2026-04-20 18:22 -15.44310 -48.09868 20045 ft 412 kts 314°
2026-04-20 18:22 -15.42271 -48.11985 20517 ft 415 kts 314°
2026-04-20 18:23 -15.40222 -48.14110 20990 ft 418 kts 314°
2026-04-20 18:23 -15.38165 -48.16244 21476 ft 420 kts 314°
2026-04-20 18:23 -15.36087 -48.18398 21943 ft 422 kts 314°
2026-04-20 18:23 -15.34033 -48.20527 22390 ft 425 kts 314°
2026-04-20 18:24 -15.31933 -48.22703 22841 ft 427 kts 313°
2026-04-20 18:24 -15.29826 -48.24886 23278 ft 430 kts 313°
2026-04-20 18:24 -15.27698 -48.27090 23690 ft 432 kts 313°
2026-04-20 18:24 -15.25571 -48.29292 24052 ft 435 kts 313°
2026-04-20 18:25 -15.23421 -48.31517 24410 ft 437 kts 313°
2026-04-20 18:25 -15.21264 -48.33749 24760 ft 439 kts 313°
2026-04-20 18:25 -15.19100 -48.35988 25096 ft 442 kts 313°
2026-04-20 18:25 -15.16918 -48.38243 25441 ft 444 kts 312°
2026-04-20 18:26 -15.14720 -48.40516 25770 ft 447 kts 312°
2026-04-20 18:26 -15.12516 -48.42793 26089 ft 449 kts 312°
2026-04-20 18:26 -15.10300 -48.45083 26424 ft 451 kts 312°
2026-04-20 18:26 -15.08077 -48.47379 26737 ft 453 kts 312°
2026-04-20 18:27 -15.05837 -48.49691 27034 ft 455 kts 312°
2026-04-20 18:27 -15.03587 -48.52014 27330 ft 458 kts 311°
2026-04-20 18:27 -15.01354 -48.54317 27614 ft 460 kts 311°
2026-04-20 18:27 -14.99049 -48.56694 27915 ft 462 kts 311°
2026-04-20 18:28 -14.96801 -48.59013 28212 ft 464 kts 311°
2026-04-20 18:28 -14.94508 -48.61376 28490 ft 466 kts 311°
2026-04-20 18:28 -14.92204 -48.63750 28768 ft 468 kts 311°
2026-04-20 18:28 -14.89894 -48.66130 29020 ft 470 kts 311°
2026-04-20 18:29 -14.87567 -48.68525 29302 ft 472 kts 311°
2026-04-20 18:29 -14.85239 -48.70923 29551 ft 474 kts 311°
2026-04-20 18:29 -14.82891 -48.73339 29784 ft 476 kts 311°
2026-04-20 18:29 -14.80541 -48.75756 30012 ft 477 kts 311°
2026-04-20 18:30 -14.78187 -48.78177 30232 ft 478 kts 311°
2026-04-20 18:30 -14.75823 -48.80606 30468 ft 479 kts 311°
2026-04-20 18:30 -14.73458 -48.83036 30675 ft 480 kts 311°
2026-04-20 18:30 -14.71088 -48.85471 30913 ft 481 kts 311°
2026-04-20 18:31 -14.68720 -48.87902 31215 ft 479 kts 311°
2026-04-20 18:31 -14.66359 -48.90325 31585 ft 477 kts 310°
2026-04-20 18:31 -14.64010 -48.92734 31948 ft 474 kts 311°
2026-04-20 18:31 -14.61704 -48.95100 32240 ft 474 kts 310°
2026-04-20 18:32 -14.59364 -48.97501 32512 ft 474 kts 310°
2026-04-20 18:32 -14.57026 -48.99899 32830 ft 473 kts 310°
2026-04-20 18:32 -14.55480 -49.01484 33049 ft 471 kts 310°
2026-04-20 18:32 -14.53160 -49.03862 33408 ft 469 kts 310°
2026-04-20 18:33 -14.50814 -49.06265 33775 ft 468 kts 310°
2026-04-20 18:33 -14.47758 -49.09395 34150 ft 466 kts 310°
2026-04-20 18:33 -14.46233 -49.10956 34324 ft 466 kts 310°
2026-04-20 18:33 -14.43935 -49.13309 34615 ft 464 kts 310°
2026-04-20 18:34 -14.41641 -49.15656 34886 ft 463 kts 310°
2026-04-20 18:34 -14.39353 -49.17997 35163 ft 462 kts 310°
2026-04-20 18:34 -14.37076 -49.20326 35430 ft 461 kts 310°
2026-04-20 18:34 -14.34807 -49.22645 35682 ft 460 kts 310°
2026-04-20 18:35 -14.32530 -49.24972 35933 ft 459 kts 310°
2026-04-20 18:35 -14.30261 -49.27291 36194 ft 458 kts 310°
2026-04-20 18:35 -14.27996 -49.29605 36452 ft 457 kts 310°
2026-04-20 18:35 -14.25741 -49.31909 36698 ft 456 kts 310°
2026-04-20 18:36 -14.23491 -49.34206 36956 ft 455 kts 310°
2026-04-20 18:36 -14.21242 -49.36501 37192 ft 454 kts 310°
2026-04-20 18:36 -14.18999 -49.38791 37407 ft 454 kts 310°
2026-04-20 18:36 -14.16789 -49.41045 37592 ft 454 kts 310°
2026-04-20 18:37 -14.14541 -49.43339 37824 ft 453 kts 310°
2026-04-20 18:37 -14.12299 -49.45625 37868 ft 456 kts 310°
2026-04-20 18:37 -14.07758 -49.50254 37872 ft 459 kts 310°
2026-04-20 18:38 -14.03663 -49.55195 37884 ft 447 kts 296°
2026-04-20 18:38 -14.01207 -49.60955 37885 ft 436 kts 282°
2026-04-20 18:39 -13.99532 -49.66945 37878 ft 434 kts 282°
2026-04-20 18:39 -13.97868 -49.72911 37871 ft 434 kts 282°
2026-04-20 18:40 -13.96173 -49.78880 37881 ft 435 kts 282°
2026-04-20 18:40 -13.94464 -49.84839 37885 ft 437 kts 282°
2026-04-20 18:41 -13.92733 -49.90850 37880 ft 439 kts 282°
2026-04-20 18:41 -13.90993 -49.96890 37882 ft 441 kts 282°
2026-04-20 18:42 -13.89233 -50.02995 37900 ft 447 kts 282°
2026-04-20 18:42 -13.87453 -50.09162 37888 ft 451 kts 282°
2026-04-20 18:43 -13.85672 -50.15320 37879 ft 452 kts 282°
2026-04-20 18:43 -13.83864 -50.21566 37876 ft 453 kts 282°
2026-04-20 18:44 -13.82077 -50.27736 37874 ft 452 kts 283°
2026-04-20 18:44 -13.80277 -50.33945 37898 ft 452 kts 283°
2026-04-20 18:45 -13.78477 -50.40150 37881 ft 452 kts 283°
2026-04-20 18:45 -13.76689 -50.46307 37890 ft 452 kts 283°
2026-04-20 18:46 -13.74886 -50.52505 37874 ft 451 kts 283°
2026-04-20 18:46 -13.73088 -50.58683 37884 ft 451 kts 283°
2026-04-20 18:47 -13.71286 -50.64868 37873 ft 450 kts 283°
2026-04-20 18:47 -13.69488 -50.71035 37893 ft 450 kts 283°
2026-04-20 18:48 -13.67687 -50.77206 37875 ft 450 kts 283°
2026-04-20 18:48 -13.65883 -50.83378 37873 ft 450 kts 283°
2026-04-20 18:49 -13.64081 -50.89541 37870 ft 450 kts 283°
2026-04-20 18:49 -13.62285 -50.95675 37878 ft 450 kts 283°
2026-04-20 18:50 -13.60477 -51.01842 37886 ft 451 kts 283°
2026-04-20 18:50 -13.58663 -51.08027 37885 ft 451 kts 283°
2026-04-20 18:51 -13.56845 -51.14219 37882 ft 452 kts 283°
2026-04-20 18:51 -13.55041 -51.20361 37876 ft 452 kts 283°
2026-04-20 18:52 -13.53245 -51.26565 37875 ft 452 kts 281°
2026-04-20 18:52 -13.51805 -51.32839 37881 ft 450 kts 279°
2026-04-20 18:53 -13.50482 -51.39130 37873 ft 451 kts 279°
2026-04-20 18:53 -13.49130 -51.45426 37889 ft 451 kts 279°
2026-04-20 18:54 -13.47749 -51.51716 37882 ft 451 kts 279°
2026-04-20 18:54 -13.46358 -51.58007 37886 ft 452 kts 279°
2026-04-20 18:55 -13.44964 -51.64304 37884 ft 452 kts 279°
2026-04-20 18:55 -13.43566 -51.70613 37882 ft 453 kts 279°
2026-04-20 18:56 -13.42176 -51.76883 37889 ft 453 kts 279°
2026-04-20 18:56 -13.40772 -51.83205 37882 ft 453 kts 280°
2026-04-20 18:57 -13.39368 -51.89524 37889 ft 453 kts 280°
2026-04-20 18:57 -13.37964 -51.95831 37894 ft 453 kts 280°
2026-04-20 18:58 -13.36557 -52.02148 37894 ft 454 kts 280°
2026-04-20 18:58 -13.35239 -52.08484 37893 ft 453 kts 278°
2026-04-20 18:59 -13.34121 -52.14849 37889 ft 453 kts 277°
2026-04-20 18:59 -13.33010 -52.21172 37893 ft 453 kts 278°
2026-04-20 19:00 -13.31858 -52.27539 37901 ft 453 kts 278°
2026-04-20 19:00 -13.30695 -52.33904 37900 ft 454 kts 278°
2026-04-20 19:01 -13.29531 -52.40274 37886 ft 454 kts 278°
2026-04-20 19:01 -13.28364 -52.46653 37889 ft 455 kts 278°
2026-04-20 19:02 -13.26749 -52.52946 37895 ft 457 kts 285°
2026-04-20 19:02 -13.24731 -52.59163 37895 ft 458 kts 286°
2026-04-20 19:03 -13.22712 -52.65381 37890 ft 459 kts 285°
2026-04-20 19:03 -13.20738 -52.71606 37893 ft 459 kts 285°
2026-04-20 19:04 -13.18781 -52.77847 37888 ft 459 kts 285°
2026-04-20 19:04 -13.16839 -52.84041 37888 ft 459 kts 285°
2026-04-20 19:05 -13.14881 -52.90279 37887 ft 459 kts 285°
2026-04-20 19:05 -13.12916 -52.96529 37892 ft 460 kts 285°
2026-04-20 19:06 -13.10947 -53.02787 37882 ft 460 kts 285°
2026-04-20 19:06 -13.08988 -53.09006 37882 ft 460 kts 285°
2026-04-20 19:07 -13.07015 -53.15262 37886 ft 461 kts 285°
2026-04-20 19:07 -13.05036 -53.21534 37886 ft 461 kts 285°
2026-04-20 19:08 -13.02070 -53.30922 37893 ft 461 kts 285°
2026-04-20 19:09 -13.00104 -53.37136 37887 ft 461 kts 286°
2026-04-20 19:09 -12.98123 -53.43397 37885 ft 461 kts 286°
2026-04-20 19:10 -12.96140 -53.49654 37880 ft 461 kts 286°
2026-04-20 19:10 -12.93923 -53.55820 37880 ft 461 kts 289°
2026-04-20 19:11 -12.91554 -53.61897 37878 ft 462 kts 290°
2026-04-20 19:11 -12.89180 -53.68012 37882 ft 462 kts 289°
2026-04-20 19:12 -12.86831 -53.74139 37886 ft 461 kts 289°
2026-04-20 19:12 -12.84485 -53.80283 37880 ft 461 kts 289°
2026-04-20 19:13 -12.82158 -53.86380 37884 ft 461 kts 289°
2026-04-20 19:13 -12.79816 -53.92503 37883 ft 461 kts 289°
2026-04-20 19:14 -12.77474 -53.98623 37881 ft 461 kts 289°
2026-04-20 19:14 -12.75126 -54.04753 37876 ft 461 kts 290°
2026-04-20 19:15 -12.72795 -54.10834 37884 ft 461 kts 290°
2026-04-20 19:15 -12.70445 -54.16960 37885 ft 461 kts 290°
2026-04-20 19:16 -12.68099 -54.23070 37886 ft 462 kts 290°
2026-04-20 19:16 -12.66140 -54.28172 37884 ft 462 kts 290°
2026-04-20 19:17 -12.63787 -54.34297 37887 ft 462 kts 290°
2026-04-20 19:17 -12.61448 -54.40398 37881 ft 462 kts 290°
2026-04-20 19:18 -12.59097 -54.46534 37878 ft 462 kts 290°
2026-04-20 19:18 -12.56761 -54.52620 37885 ft 462 kts 290°
2026-04-20 19:19 -12.54410 -54.58745 37877 ft 461 kts 290°
2026-04-20 19:19 -12.52058 -54.64867 37888 ft 461 kts 290°
2026-04-20 19:20 -12.49694 -54.70988 37879 ft 462 kts 290°
2026-04-20 19:20 -12.47341 -54.77061 37888 ft 461 kts 290°
2026-04-20 19:21 -12.44971 -54.83172 37880 ft 461 kts 290°
2026-04-20 19:21 -12.42590 -54.89278 37890 ft 461 kts 290°
2026-04-20 19:22 -12.40221 -54.95347 37889 ft 461 kts 290°
2026-04-20 19:22 -12.37844 -55.01437 37879 ft 461 kts 290°
2026-04-20 19:23 -12.35439 -55.07508 37887 ft 461 kts 291°
2026-04-20 19:23 -12.32960 -55.13566 37884 ft 460 kts 291°
2026-04-20 19:24 -12.30490 -55.19585 37889 ft 460 kts 291°
2026-04-20 19:24 -12.28018 -55.25628 37883 ft 460 kts 292°
2026-04-20 19:25 -12.25549 -55.31676 37892 ft 460 kts 292°
2026-04-20 19:25 -12.23076 -55.37731 37892 ft 461 kts 291°
2026-04-20 19:26 -12.20605 -55.43779 37887 ft 461 kts 291°
2026-04-20 19:26 -12.18146 -55.49790 37887 ft 462 kts 292°
2026-04-20 19:27 -12.15666 -55.55847 37890 ft 462 kts 291°
2026-04-20 19:27 -12.13185 -55.61903 37888 ft 462 kts 291°
2026-04-20 19:28 -12.10697 -55.67972 37880 ft 462 kts 292°
2026-04-20 19:28 -12.08211 -55.74032 37886 ft 462 kts 292°
2026-04-20 19:29 -12.05726 -55.80086 37882 ft 462 kts 292°
2026-04-20 19:29 -12.03254 -55.86104 37885 ft 462 kts 292°
2026-04-20 19:30 -12.00763 -55.92162 37887 ft 462 kts 292°
2026-04-20 19:30 -11.98268 -55.98229 37886 ft 462 kts 292°
2026-04-20 19:31 -11.95777 -56.04280 37885 ft 462 kts 292°
2026-04-20 19:31 -11.93282 -56.10338 37886 ft 463 kts 292°
2026-04-20 19:32 -11.90785 -56.16395 37887 ft 463 kts 292°
2026-04-20 19:32 -11.88282 -56.22407 37876 ft 463 kts 294°
2026-04-20 19:33 -11.85641 -56.28410 37882 ft 463 kts 294°
2026-04-20 19:33 -11.82983 -56.34394 37879 ft 463 kts 294°
2026-04-20 19:34 -11.80331 -56.40401 37884 ft 463 kts 294°
2026-04-20 19:34 -11.77704 -56.46369 37879 ft 463 kts 294°
2026-04-20 19:35 -11.75055 -56.52389 37883 ft 464 kts 294°
2026-04-20 19:35 -11.72406 -56.58402 37881 ft 464 kts 294°
2026-04-20 19:36 -11.69773 -56.64376 37877 ft 464 kts 294°
2026-04-20 19:36 -11.67127 -56.70374 37879 ft 463 kts 294°
2026-04-20 19:37 -11.64477 -56.76378 37865 ft 464 kts 294°
2026-04-20 19:37 -11.61825 -56.82383 37883 ft 464 kts 294°
2026-04-20 19:38 -11.59166 -56.88393 37892 ft 464 kts 294°
2026-04-20 19:38 -11.56504 -56.94401 37882 ft 465 kts 294°
2026-04-20 19:39 -11.53858 -57.00371 37882 ft 465 kts 294°
2026-04-20 19:39 -11.51190 -57.06389 37881 ft 465 kts 294°
2026-04-20 19:40 -11.48521 -57.12405 37883 ft 465 kts 294°
2026-04-20 19:40 -11.45851 -57.18422 37885 ft 466 kts 294°
2026-04-20 19:41 -11.43174 -57.24448 37886 ft 466 kts 294°
2026-04-20 19:41 -11.40508 -57.30445 37884 ft 467 kts 294°
2026-04-20 19:42 -11.37822 -57.36485 37887 ft 468 kts 294°
2026-04-20 19:42 -11.35133 -57.42529 37880 ft 469 kts 294°
2026-04-20 19:43 -11.32437 -57.48582 37886 ft 470 kts 294°
2026-04-20 19:43 -11.29735 -57.54646 37881 ft 470 kts 294°
2026-04-20 19:44 -11.27025 -57.60725 37882 ft 471 kts 294°
2026-04-20 19:44 -11.24328 -57.66769 37890 ft 471 kts 294°
2026-04-20 19:45 -11.21620 -57.72836 37878 ft 470 kts 294°
2026-04-20 19:45 -11.18913 -57.78898 37882 ft 469 kts 294°
2026-04-20 19:46 -11.16212 -57.84951 37883 ft 469 kts 294°
2026-04-20 19:46 -11.13525 -57.90971 37881 ft 469 kts 294°
2026-04-20 19:47 -11.10826 -57.97012 37873 ft 469 kts 294°
2026-04-20 19:47 -11.08122 -58.03063 37889 ft 470 kts 294°
2026-04-20 19:48 -11.05410 -58.09127 37884 ft 471 kts 294°
2026-04-20 19:48 -11.02695 -58.15195 37880 ft 471 kts 294°
2026-04-20 19:49 -10.99969 -58.21282 37881 ft 472 kts 294°
2026-04-20 19:49 -10.97244 -58.27345 37882 ft 474 kts 294°
2026-04-20 19:50 -10.94493 -58.33457 37884 ft 475 kts 294°
2026-04-20 19:50 -10.91739 -58.39576 37883 ft 476 kts 294°
2026-04-20 19:51 -10.88989 -58.45684 37882 ft 477 kts 294°
2026-04-20 19:51 -10.86219 -58.51835 37888 ft 478 kts 295°
2026-04-20 19:52 -10.83442 -58.57997 37878 ft 478 kts 295°
2026-04-20 19:52 -10.80661 -58.64161 37880 ft 478 kts 295°
2026-04-20 19:53 -10.77907 -58.70265 37880 ft 478 kts 295°
2026-04-20 19:53 -10.75121 -58.76434 37883 ft 478 kts 295°
2026-04-20 19:54 -10.72343 -58.82582 37884 ft 478 kts 295°
2026-04-20 19:54 -10.69585 -58.88683 37886 ft 477 kts 295°
2026-04-20 19:55 -10.66801 -58.94837 37893 ft 477 kts 295°
2026-04-20 19:55 -10.64038 -59.00942 37886 ft 478 kts 295°
2026-04-20 19:56 -10.61725 -59.06049 37891 ft 478 kts 295°
2026-04-20 19:56 -10.58470 -59.13232 37883 ft 478 kts 295°
2026-04-20 19:57 -10.55691 -59.19361 37879 ft 477 kts 295°
2026-04-20 19:57 -10.52927 -59.25454 37878 ft 477 kts 295°
2026-04-20 19:58 -10.50244 -59.31630 37880 ft 477 kts 292°
2026-04-20 19:58 -10.47862 -59.37924 37876 ft 477 kts 291°
2026-04-20 19:59 -10.45527 -59.44242 37883 ft 477 kts 291°
2026-04-20 19:59 -10.43154 -59.50566 37870 ft 478 kts 291°
2026-04-20 20:00 -10.40777 -59.56830 37879 ft 478 kts 292°
2026-04-20 20:00 -10.38372 -59.63144 37866 ft 478 kts 292°
2026-04-20 20:01 -10.35970 -59.69446 37872 ft 478 kts 292°
2026-04-20 20:01 -10.33566 -59.75753 37871 ft 478 kts 292°
2026-04-20 20:02 -10.31178 -59.82015 37866 ft 478 kts 292°
2026-04-20 20:02 -10.28774 -59.88317 37867 ft 478 kts 292°
2026-04-20 20:03 -10.26369 -59.94617 37870 ft 479 kts 292°
2026-04-20 20:03 -10.23960 -60.00921 37867 ft 479 kts 292°
2026-04-20 20:04 -10.21938 -60.06209 37879 ft 479 kts 292°
2026-04-20 20:04 -10.19537 -60.12488 37867 ft 480 kts 292°
2026-04-20 20:05 -10.17113 -60.18819 37866 ft 480 kts 292°
2026-04-20 20:05 -10.14691 -60.25144 37874 ft 480 kts 292°
2026-04-20 20:06 -10.12267 -60.31469 37867 ft 481 kts 292°
2026-04-20 20:06 -10.09851 -60.37768 37867 ft 481 kts 292°
2026-04-20 20:07 -10.07420 -60.44101 37868 ft 481 kts 292°
2026-04-20 20:07 -10.05001 -60.50401 37869 ft 481 kts 292°
2026-04-20 20:08 -10.02568 -60.56735 37867 ft 481 kts 292°
2026-04-20 20:08 -10.00134 -60.63065 37871 ft 481 kts 292°
2026-04-20 20:09 -9.97701 -60.69389 37866 ft 481 kts 292°
2026-04-20 20:09 -9.95266 -60.75715 37868 ft 481 kts 291°
2026-04-20 20:10 -9.92828 -60.82044 37871 ft 481 kts 291°
2026-04-20 20:10 -9.90404 -60.88335 37865 ft 482 kts 292°
2026-04-20 20:11 -9.87953 -60.94678 37872 ft 482 kts 292°
2026-04-20 20:11 -9.85497 -61.01005 37871 ft 483 kts 292°
2026-04-20 20:12 -9.83034 -61.07345 37869 ft 483 kts 292°
2026-04-20 20:12 -9.80579 -61.13666 37867 ft 483 kts 292°
2026-04-20 20:13 -9.76880 -61.23186 37866 ft 484 kts 292°
2026-04-20 20:13 -9.74410 -61.29536 37872 ft 484 kts 292°
2026-04-20 20:14 -9.71937 -61.35892 37870 ft 484 kts 292°
2026-04-20 20:14 -9.69485 -61.42190 37867 ft 483 kts 292°
2026-04-20 20:15 -9.67017 -61.48522 37865 ft 482 kts 292°
2026-04-20 20:15 -9.64549 -61.54855 37871 ft 482 kts 292°
2026-04-20 20:16 -9.62097 -61.61143 37867 ft 482 kts 292°
2026-04-20 20:16 -9.59624 -61.67474 37867 ft 481 kts 292°
2026-04-20 20:17 -9.58402 -61.70597 37846 ft 468 kts 292°
2026-04-20 20:17 -9.57217 -61.73627 37670 ft 458 kts 292°
2026-04-20 20:17 -9.56055 -61.76595 37429 ft 450 kts 292°
2026-04-20 20:17 -9.54905 -61.79532 36926 ft 449 kts 292°
2026-04-20 20:18 -9.53768 -61.82434 36445 ft 448 kts 292°
2026-04-20 20:18 -9.52621 -61.85363 35968 ft 447 kts 292°
2026-04-20 20:18 -9.51476 -61.88286 35496 ft 446 kts 292°
2026-04-20 20:18 -9.50332 -61.91204 35033 ft 445 kts 292°
2026-04-20 20:19 -9.49190 -61.94114 34567 ft 443 kts 292°
2026-04-20 20:19 -9.48056 -61.96996 34109 ft 437 kts 292°
2026-04-20 20:19 -9.46933 -61.99845 33626 ft 435 kts 292°
2026-04-20 20:19 -9.45796 -62.02729 32698 ft 445 kts 292°
2026-04-20 20:20 -9.44634 -62.05676 32021 ft 449 kts 292°
2026-04-20 20:20 -9.43480 -62.08603 31532 ft 447 kts 292°
2026-04-20 20:20 -9.42345 -62.11483 31112 ft 444 kts 292°
2026-04-20 20:20 -9.41204 -62.14378 30677 ft 441 kts 292°
2026-04-20 20:21 -9.40069 -62.17257 30232 ft 439 kts 292°
2026-04-20 20:21 -9.38939 -62.20122 29775 ft 437 kts 292°
2026-04-20 20:21 -9.37811 -62.22981 29275 ft 434 kts 292°
2026-04-20 20:21 -9.36697 -62.25806 28805 ft 430 kts 292°
2026-04-20 20:22 -9.35590 -62.28609 28351 ft 427 kts 292°
2026-04-20 20:22 -9.34493 -62.31388 27906 ft 424 kts 292°
2026-04-20 20:22 -9.33400 -62.34157 27459 ft 420 kts 292°
2026-04-20 20:22 -9.32321 -62.36888 27026 ft 417 kts 292°
2026-04-20 20:23 -9.31257 -62.39581 26600 ft 414 kts 292°
2026-04-20 20:23 -9.30188 -62.42285 26162 ft 412 kts 292°
2026-04-20 20:23 -9.29126 -62.44971 25729 ft 409 kts 292°
2026-04-20 20:23 -9.28070 -62.47642 25282 ft 407 kts 292°
2026-04-20 20:24 -9.27020 -62.50297 24841 ft 406 kts 292°
2026-04-20 20:24 -9.25971 -62.52948 24411 ft 404 kts 292°
2026-04-20 20:24 -9.24927 -62.55587 23978 ft 402 kts 292°
2026-04-20 20:24 -9.23890 -62.58206 23544 ft 401 kts 292°
2026-04-20 20:25 -9.22855 -62.60823 23047 ft 399 kts 292°
2026-04-20 20:25 -9.21824 -62.63426 22594 ft 396 kts 292°
2026-04-20 20:25 -9.20815 -62.65974 22159 ft 393 kts 292°
2026-04-20 20:25 -9.19799 -62.68539 21732 ft 390 kts 292°
2026-04-20 20:26 -9.18793 -62.71077 21309 ft 387 kts 292°
2026-04-20 20:26 -9.17796 -62.73592 20894 ft 384 kts 292°
2026-04-20 20:26 -9.16805 -62.76094 20470 ft 381 kts 292°
2026-04-20 20:26 -9.15821 -62.78575 20061 ft 378 kts 292°
2026-04-20 20:27 -9.14843 -62.81041 19631 ft 377 kts 292°
2026-04-20 20:27 -9.13868 -62.83498 19220 ft 374 kts 292°
2026-04-20 20:27 -9.12901 -62.85936 18796 ft 373 kts 292°
2026-04-20 20:27 -9.11935 -62.88371 18386 ft 371 kts 292°
2026-04-20 20:28 -9.10976 -62.90786 17948 ft 370 kts 293°
2026-04-20 20:28 -9.10031 -62.93166 17508 ft 367 kts 293°
2026-04-20 20:28 -9.09084 -62.95556 17090 ft 364 kts 292°
2026-04-20 20:28 -9.08146 -62.97926 16680 ft 361 kts 292°
2026-04-20 20:29 -9.07215 -63.00281 16270 ft 359 kts 292°
2026-04-20 20:29 -9.06293 -63.02615 15879 ft 356 kts 292°
2026-04-20 20:29 -9.05376 -63.04932 15481 ft 354 kts 292°
2026-04-20 20:29 -9.04462 -63.07244 15075 ft 352 kts 292°
2026-04-20 20:30 -9.03553 -63.09540 14683 ft 350 kts 292°
2026-04-20 20:30 -9.02651 -63.11818 14270 ft 346 kts 292°
2026-04-20 20:30 -9.01768 -63.14050 13889 ft 337 kts 292°
2026-04-20 20:30 -9.00919 -63.16196 13512 ft 329 kts 292°
2026-04-20 20:31 -9.00068 -63.18345 13107 ft 321 kts 292°
2026-04-20 20:31 -8.99256 -63.20396 12735 ft 313 kts 292°
2026-04-20 20:31 -8.98456 -63.22416 12376 ft 306 kts 292°
2026-04-20 20:31 -8.97660 -63.24422 12024 ft 300 kts 292°
2026-04-20 20:32 -8.96896 -63.26351 11704 ft 299 kts 292°
2026-04-20 20:32 -8.96121 -63.28304 11332 ft 302 kts 292°
2026-04-20 20:32 -8.95320 -63.30322 10985 ft 311 kts 292°
2026-04-20 20:32 -8.94507 -63.32371 10609 ft 312 kts 292°
2026-04-20 20:33 -8.93716 -63.34365 10265 ft 305 kts 292°
2026-04-20 20:33 -8.92945 -63.36308 10135 ft 290 kts 292°
2026-04-20 20:33 -8.92214 -63.38153 9990 ft 277 kts 292°
2026-04-20 20:33 -8.91506 -63.39936 9868 ft 269 kts 292°
2026-04-20 20:34 -8.90810 -63.41689 9587 ft 269 kts 292°
2026-04-20 20:34 -8.90115 -63.43436 9307 ft 267 kts 292°
2026-04-20 20:34 -8.89421 -63.45183 9027 ft 267 kts 292°
2026-04-20 20:34 -8.88923 -63.46961 8725 ft 267 kts 272°
2026-04-20 20:35 -8.89038 -63.48833 8481 ft 265 kts 266°
2026-04-20 20:35 -8.89205 -63.50689 8204 ft 264 kts 265°
2026-04-20 20:35 -8.89369 -63.52528 7930 ft 264 kts 265°
2026-04-20 20:35 -8.89530 -63.54377 7659 ft 263 kts 265°
2026-04-20 20:36 -8.89688 -63.56225 7379 ft 263 kts 265°
2026-04-20 20:36 -8.89843 -63.58073 7103 ft 263 kts 266°
2026-04-20 20:36 -8.89998 -63.59924 6820 ft 263 kts 266°
2026-04-20 20:36 -8.90148 -63.61741 6545 ft 262 kts 266°
2026-04-20 20:37 -8.90300 -63.63584 6273 ft 262 kts 266°
2026-04-20 20:37 -8.90451 -63.65409 6095 ft 254 kts 266°
2026-04-20 20:37 -8.90593 -63.67145 5995 ft 240 kts 266°
2026-04-20 20:37 -8.90727 -63.68777 5894 ft 226 kts 266°
2026-04-20 20:38 -8.90851 -63.70300 5786 ft 214 kts 266°
2026-04-20 20:38 -8.90971 -63.71761 5664 ft 203 kts 266°
2026-04-20 20:38 -8.91086 -63.73182 5374 ft 202 kts 266°
2026-04-20 20:38 -8.91201 -63.74594 5088 ft 201 kts 266°
2026-04-20 20:39 -8.91316 -63.76001 4828 ft 199 kts 266°
2026-04-20 20:39 -8.91430 -63.77402 4553 ft 199 kts 267°
2026-04-20 20:39 -8.91542 -63.78776 4266 ft 198 kts 267°
2026-04-20 20:39 -8.91473 -63.80140 4043 ft 192 kts 289°
2026-04-20 20:40 -8.91054 -63.81399 3944 ft 186 kts 289°
2026-04-20 20:40 -8.90686 -63.82614 3868 ft 178 kts 288°
2026-04-20 20:40 -8.90330 -63.83807 3786 ft 175 kts 288°
2026-04-20 20:40 -8.89983 -63.84976 3699 ft 172 kts 288°
2026-04-20 20:41 -8.89638 -63.86135 3644 ft 173 kts 288°
2026-04-20 20:41 -8.89286 -63.87316 3472 ft 178 kts 287°
2026-04-20 20:41 -8.88870 -63.88501 3352 ft 177 kts 303°
2026-04-20 20:41 -8.87939 -63.89191 3237 ft 172 kts 349°
2026-04-20 20:42 -8.86738 -63.89285 3082 ft 176 kts 356°
2026-04-20 20:42 -8.85503 -63.89366 2850 ft 177 kts 356°
2026-04-20 20:42 -8.84280 -63.89443 2667 ft 173 kts 356°
2026-04-20 20:42 -8.83085 -63.89517 2462 ft 171 kts 356°
2026-04-20 20:43 -8.81904 -63.89588 2241 ft 171 kts 357°
2026-04-20 20:43 -8.80733 -63.89660 2033 ft 164 kts 356°
2026-04-20 20:43 -8.79631 -63.89723 1984 ft 154 kts 357°
2026-04-20 20:43 -8.78601 -63.89780 1961 ft 144 kts 357°
2026-04-20 20:44 -8.77588 -63.89836 1913 ft 146 kts 357°
2026-04-20 20:44 -8.76582 -63.89892 1908 ft 142 kts 357°
2026-04-20 20:44 -8.75560 -63.89950 1543 ft 153 kts 357°
2026-04-20 20:44 -8.74518 -63.90013 1034 ft 152 kts 356°
2026-04-20 20:45 -8.73465 -63.90077 605 ft 147 kts 355°
2026-04-20 20:45 -8.72500 -63.90136 409 ft 135 kts 355°
2026-04-20 20:45 -8.71586 -63.90190 299 ft 124 kts 356°
2026-04-20 20:45 -8.70929 -63.90231 303 ft 63 kts 356°
2026-04-20 20:46 -8.70729 -63.90241 300 ft 20 kts
2026-04-20 20:46 -8.70652 -63.90219 300 ft 8 kts 330°
2026-04-20 20:46 -8.70663 -63.90245 298 ft 5 kts 192°
2026-04-20 20:46 -8.70704 -63.90242 298 ft 8 kts 175°
2026-04-20 20:47 -8.70800 -63.90237 299 ft 19 kts 178°
2026-04-20 20:47 -8.70946 -63.90230 301 ft 22 kts 176°
2026-04-20 20:47 -8.71095 -63.90221 298 ft 21 kts 176°
2026-04-20 20:47 -8.71238 -63.90212 302 ft 20 kts 176°
2026-04-20 20:48 -8.71364 -63.90204 301 ft 10 kts 176°
2026-04-20 20:48 -8.71414 -63.90176 301 ft 9 kts 120°
2026-04-20 20:48 -8.71420 -63.90116 300 ft 9 kts 87°
2026-04-20 20:48 -8.71423 -63.90057 299 ft 9 kts 103°
2026-04-20 20:49 -8.71424 -63.89998 300 ft 8 kts 86°
2026-04-20 20:49 -8.71421 -63.89941 300 ft 6 kts 86°